TimeMDT,TemperatureF,Dew PointF,Humidity,Sea Level PressureIn,VisibilityMPH,Wind Direction,Wind SpeedMPH,Gust SpeedMPH,PrecipitationIn,Events,Conditions,WindDirDegrees,DateUTC
12:53 AM,59.0,50.0,72,30.10,10.0,NNE,9.2,-,N/A,,Mostly Cloudy,20,2013-09-15 06:53:00
1:53 AM,59.0,48.9,69,30.11,10.0,NNE,9.2,-,N/A,,Mostly Cloudy,20,2013-09-15 07:53:00
2:53 AM,57.9,48.9,72,30.12,10.0,NNE,8.1,-,N/A,,Scattered Clouds,20,2013-09-15 08:53:00
3:53 AM,57.9,48.9,72,30.12,10.0,NNE,9.2,-,N/A,,Overcast,30,2013-09-15 09:53:00
4:53 AM,57.0,48.9,74,30.12,10.0,NNE,9.2,-,N/A,,Mostly Cloudy,20,2013-09-15 10:53:00
5:53 AM,57.0,48.9,74,30.13,10.0,NNE,9.2,-,N/A,,Overcast,30,2013-09-15 11:53:00
6:53 AM,55.9,50.0,80,30.14,10.0,NNE,9.2,-,N/A,,Mostly Cloudy,30,2013-09-15 12:53:00
7:53 AM,55.9,50.0,80,30.15,10.0,NNE,10.4,-,N/A,,Mostly Cloudy,30,2013-09-15 13:53:00
8:53 AM,57.0,51.1,81,30.15,10.0,NNE,9.2,-,N/A,,Mostly Cloudy,30,2013-09-15 14:53:00
9:53 AM,59.0,52.0,78,30.15,10.0,NE,9.2,-,N/A,,Mostly Cloudy,50,2013-09-15 15:53:00
10:14 AM,61.0,53.1,75,30.20,10.0,NNE,9.2,-,N/A,,Scattered Clouds,30,2013-09-15 16:14:00
10:53 AM,63.0,55.0,75,30.15,10.0,NE,8.1,-,N/A,,Partly Cloudy,50,2013-09-15 16:53:00
11:53 AM,64.9,57.0,75,30.14,10.0,East,3.5,-,N/A,,Scattered Clouds,90,2013-09-15 17:53:00
12:53 PM,71.1,57.9,63,30.11,10.0,ESE,16.1,23.0,N/A,,Mostly Cloudy,110,2013-09-15 18:53:00
1:53 PM,72.0,55.9,57,30.09,10.0,SE,17.3,24.2,N/A,,Scattered Clouds,130,2013-09-15 19:53:00
2:53 PM,73.0,55.0,53,30.07,10.0,SE,16.1,23.0,N/A,,Mostly Cloudy,130,2013-09-15 20:53:00
3:53 PM,73.9,55.0,52,30.05,10.0,SE,19.6,24.2,N/A,,Scattered Clouds,130,2013-09-15 21:53:00
4:53 PM,73.9,54.0,50,30.03,10.0,SE,17.3,24.2,N/A,,Scattered Clouds,130,2013-09-15 22:53:00
5:53 PM,72.0,54.0,53,30.02,10.0,ESE,17.3,24.2,N/A,,Partly Cloudy,120,2013-09-15 23:53:00
6:53 PM,71.1,54.0,55,30.01,10.0,SE,13.8,26.5,N/A,,Partly Cloudy,130,2013-09-16 00:53:00
7:53 PM,69.1,54.0,58,30.00,10.0,ESE,13.8,24.2,N/A,,Partly Cloudy,120,2013-09-16 01:53:00
8:53 PM,68.0,53.1,59,30.00,10.0,SE,15.0,23.0,N/A,,Clear,140,2013-09-16 02:53:00
9:53 PM,64.9,54.0,68,29.99,10.0,SSE,6.9,-,N/A,,Clear,150,2013-09-16 03:53:00
10:53 PM,64.0,54.0,70,29.97,10.0,SSE,4.6,-,N/A,,Clear,150,2013-09-16 04:53:00
11:53 PM,64.0,54.0,70,29.95,10.0,SSE,4.6,-,N/A,,Clear,150,2013-09-16 05:53:00